Flag for Germany Weather past 2 weeks in Konstanz, Baden-Württemberg, Germany

Now
70 °F

Passing clouds.


Feels Like: 70 °F
Forecast: 60 / 79 °F
Wind: 1 mph from Southwest

Location: Konstanz

Current Time: Aug 31, 2015 at 9:44:46 AM

Latest Report: Aug 31, 2015 at 9:00 AM


Visibility: 44 mi

Pressure: 30.02 "Hg

Humidity: 70%

Dew point: 59 °F

Location of KonstanzLocation

Historic Weather in Konstanz — Graph

°F

Konstanz temperature yesterday

Maximum temperature yesterday: 90 °F (at 5:00 PM)
Minimum temperature yesterday: 67 °F (at 7:00 AM)
Average temperature yesterday: 78 °F

Past Weeks' High & Low Weather Summary

 TemperatureHumidityPressure
High92 °F (Aug 29, 5:00 PM)97% (Aug 21, 6:00 AM)30.27 "Hg (Aug 21, 6:00 AM)
Low53 °F (Aug 26, 7:00 AM)29% (Aug 26, 3:00 PM)29.70 "Hg (Aug 24, 8:00 AM)
Average67 °F70%30.01 "Hg
* Reported Aug 16 8:00 AM — Aug 31 8:00 AM, Konstanz, Weather by CustomWeather, © 2015

Note: Actual official high and low records may vary slightly from our data, if they occured in-between our weather recording intervals... More about our weather records

Advertising

Konstanz weather history for previous 24 hours

 ConditionsComfort  
Time TempWeatherWind HumidityBarometerVisibility
8:00 AM
Mon, Aug 31
66 °FSunny.2 mph83%30.03 "Hg43 mi
7:00 AM64 °FPassing clouds.1 mph90%30.03 "Hg31 mi
5:00 AM66 °FClear.2 mph85%30.02 "Hg19 mi
4:00 AM67 °FClear.2 mph82%30.01 "Hg22 mi
3:00 AM66 °FClear.1 mph80%30.00 "Hg28 mi
2:00 AM68 °FClear.2 mph81%30.01 "Hg25 mi
1:00 AM69 °FClear.1 mph80%30.03 "Hg25 mi
11:00 PM
Sun, Aug 30
73 °FClear.1 mph65%30.02 "Hg31 mi
10:00 PM76 °FClear.2 mph59%30.01 "Hg43 mi
9:00 PM78 °FClear.1 mph57%30.00 "Hg40 mi
8:00 PM85 °FSunny.1 mph43%29.97 "Hg34 mi
7:00 PM89 °FSunny.1 mph31%29.96 "Hg43 mi
6:00 PM89 °FSunny.1 mph32%29.96 "Hg28 mi
5:00 PM90 °FSunny.2 mph32%29.97 "Hg19 mi
4:00 PM89 °FSunny.2 mph34%29.99 "Hg19 mi
3:00 PM89 °FPassing clouds.2 mph38%30.01 "Hg19 mi
2:00 PM85 °FPassing clouds.2 mph48%30.04 "Hg19 mi
1:00 PM83 °FPassing clouds.2 mph52%30.07 "Hg19 mi
12:00 PM82 °FPassing clouds.2 mph58%30.09 "Hg19 mi
11:00 AM79 °FPassing clouds.2 mph63%30.10 "Hg19 mi
10:00 AM76 °FPassing clouds.1 mph70%30.11 "Hg19 mi
9:00 AM73 °FPassing clouds.1 mph74%30.12 "Hg19 mi
Weather by CustomWeather, © 2015

See weather overviewHow to use our weather pages